• în România
  • Lista ţărilor
  • Pe 7 zile
  • Temperatura apei
  • Hartă satelitară
  • Meteo pe hartă
  • Widget-uri
  • user-avatar
    Intrare

    Meteo pe oră la Tirana

    Astăzi, 24 Iunie, Sâmbătă

    Timp Temperatura Precipitaţii Vânt Presiune Umiditate
    00:00 +19°C° 0 mm 0 m/s 754 mmHg 77%
    01:00 +19°C° 0 mm 0 m/s 754 mmHg 77%
    02:00 +18°C° 0 mm 0 m/s 754 mmHg 77%
    03:00 +20°C° 0 mm 1 m/s 754 mmHg 78%
    04:00 +20°C° 0 mm 1 m/s 754 mmHg 79%
    05:00 +23°C° 0 mm 1 m/s 754 mmHg 68%
    06:00 +26°C° 0 mm 1 m/s 755 mmHg 57%
    07:00 +29°C° 0 mm 1 m/s 755 mmHg 45%
    08:00 +31°C° 0 mm 1 m/s 755 mmHg 41%
    09:00 +33°C° 0 mm 1 m/s 754 mmHg 36%
    10:00 +35°C° 0 mm 1 m/s 754 mmHg 32%
    11:00 +37°C° 0 mm 2 m/s 754 mmHg 31%
    12:00 +37°C° 0 mm 3 m/s 754 mmHg 30%
    13:00 +37°C° 0 mm 4 m/s 754 mmHg 29%
    14:00 +37°C° 0 mm 4 m/s 753 mmHg 32%
    15:00 +36°C° 0 mm 4 m/s 753 mmHg 34%
    16:00 +35°C° 0 mm 3 m/s 753 mmHg 37%
    17:00 +33°C° 0 mm 3 m/s 753 mmHg 47%
    18:00 +29°C° 0 mm 2 m/s 753 mmHg 58%
    19:00 +26°C° 0 mm 2 m/s 753 mmHg 69%
    20:00 +26°C° 0 mm 1 m/s 753 mmHg 69%
    21:00 +25°C° 0 mm 1 m/s 754 mmHg 70%
    22:00 +22°C° 0 mm 0 m/s 754 mmHg 70%
    23:00 +24°C° 0,1 mm 1 m/s 754 mmHg 71%

    Mâine, 25 Iunie, Duminică

    Timp Temperatura Precipitaţii Vânt Presiune Umiditate
    00:00 +24°C° 0,1 mm 1 m/s 754 mmHg 72%
    01:00 +24°C° 0,1 mm 1 m/s 754 mmHg 73%
    02:00 +23°C° 0 mm 1 m/s 753 mmHg 73%
    03:00 +23°C° 0 mm 1 m/s 753 mmHg 73%
    04:00 +23°C° 0 mm 1 m/s 753 mmHg 74%
    05:00 +25°C° 0 mm 1 m/s 753 mmHg 67%
    06:00 +28°C° 0 mm 1 m/s 753 mmHg 60%
    07:00 +30°C° 0 mm 1 m/s 753 mmHg 53%
    08:00 +32°C° 0 mm 1 m/s 753 mmHg 47%
    09:00 +34°C° 0 mm 1 m/s 753 mmHg 41%
    10:00 +36°C° 0 mm 1 m/s 753 mmHg 35%
    11:00 +37°C° 0 mm 2 m/s 753 mmHg 34%
    12:00 +38°C° 0 mm 3 m/s 752 mmHg 34%
    13:00 +38°C° 0 mm 3 m/s 752 mmHg 33%
    14:00 +37°C° 0 mm 3 m/s 752 mmHg 35%
    15:00 +36°C° 0 mm 3 m/s 751 mmHg 37%
    16:00 +35°C° 0 mm 2 m/s 751 mmHg 39%
    17:00 +32°C° 0 mm 2 m/s 751 mmHg 50%
    18:00 +29°C° 0 mm 1 m/s 751 mmHg 60%
    19:00 +27°C° 0 mm 1 m/s 751 mmHg 71%
    20:00 +26°C° 0 mm 1 m/s 751 mmHg 72%
    21:00 +25°C° 0 mm 1 m/s 751 mmHg 73%
    22:00 +23°C° 0 mm 1 m/s 752 mmHg 74%
    23:00 +23°C° 0 mm 1 m/s 751 mmHg 76%

    Poimâine, 26 Iunie, Luni

    Timp Temperatura Precipitaţii Vânt Presiune Umiditate
    00:00 +22°C° 0 mm 1 m/s 751 mmHg 79%
    01:00 +20°C° 0 mm 0 m/s 751 mmHg 81%
    02:00 +19°C° 0 mm 0 m/s 751 mmHg 81%
    03:00 +21°C° 0 mm 1 m/s 751 mmHg 81%
    04:00 +21°C° 0 mm 1 m/s 751 mmHg 81%
    05:00 +24°C° 0 mm 1 m/s 751 mmHg 70%
    06:00 +27°C° 0 mm 1 m/s 751 mmHg 58%
    07:00 +28°C° 0 mm 0 m/s 751 mmHg 47%
    08:00 +32°C° 0 mm 1 m/s 752 mmHg 42%
    09:00 +34°C° 0 mm 1 m/s 752 mmHg 37%
    10:00 +35°C° 0 mm 1 m/s 752 mmHg 32%
    11:00 +37°C° 0 mm 2 m/s 751 mmHg 31%
    12:00 +37°C° 0 mm 3 m/s 751 mmHg 30%
    13:00 +38°C° 0 mm 3 m/s 751 mmHg 29%
    14:00 +37°C° 0 mm 3 m/s 751 mmHg 31%
    15:00 +36°C° 0 mm 3 m/s 751 mmHg 33%
    16:00 +35°C° 0 mm 3 m/s 751 mmHg 35%
    17:00 +33°C° 0 mm 3 m/s 751 mmHg 46%
    18:00 +29°C° 0 mm 2 m/s 751 mmHg 56%
    19:00 +26°C° 0 mm 2 m/s 751 mmHg 67%
    20:00 +25°C° 0 mm 1 m/s 752 mmHg 69%
    21:00 +24°C° 0 mm 1 m/s 752 mmHg 71%
    22:00 +23°C° 0 mm 1 m/s 752 mmHg 74%
    23:00 +23°C° 0 mm 1 m/s 752 mmHg 75%

    27 Iunie, Marţi

    Timp Temperatura Precipitaţii Vânt Presiune Umiditate
    00:00 +23°C° 0 mm 1 m/s 752 mmHg 75%
    01:00 +22°C° 0 mm 1 m/s 752 mmHg 76%
    02:00 +22°C° 0 mm 1 m/s 752 mmHg 77%
    03:00 +22°C° 0 mm 1 m/s 752 mmHg 78%
    04:00 +22°C° 0 mm 1 m/s 752 mmHg 78%
    05:00 +25°C° 0 mm 1 m/s 752 mmHg 69%
    06:00 +27°C° 0 mm 1 m/s 752 mmHg 60%
    07:00 +30°C° 0 mm 1 m/s 753 mmHg 51%
    08:00 +32°C° 0 mm 1 m/s 753 mmHg 45%
    09:00 +34°C° 0 mm 1 m/s 753 mmHg 40%
    10:00 +36°C° 0 mm 1 m/s 753 mmHg 35%
    11:00 +37°C° 0 mm 2 m/s 752 mmHg 33%
    12:00 +37°C° 0 mm 3 m/s 752 mmHg 32%
    13:00 +38°C° 0 mm 3 m/s 752 mmHg 30%
    14:00 +37°C° 0 mm 3 m/s 752 mmHg 32%
    15:00 +37°C° 0 mm 3 m/s 751 mmHg 33%
    16:00 +36°C° 0 mm 3 m/s 751 mmHg 34%
    17:00 +32°C° 0 mm 2 m/s 751 mmHg 45%
    18:00 +29°C° 0 mm 1 m/s 752 mmHg 57%
    19:00 +26°C° 0 mm 1 m/s 752 mmHg 68%
    20:00 +25°C° 0 mm 1 m/s 752 mmHg 71%
    21:00 +24°C° 0 mm 1 m/s 752 mmHg 74%
    22:00 +23°C° 0 mm 1 m/s 752 mmHg 77%
    23:00 +22°C° 0 mm 1 m/s 752 mmHg 78%

    28 Iunie, Miercuri

    Timp Temperatura Precipitaţii Vânt Presiune Umiditate
    00:00 +22°C° 0 mm 1 m/s 752 mmHg 79%
    01:00 +21°C° 0 mm 1 m/s 752 mmHg 80%
    02:00 +21°C° 0 mm 1 m/s 752 mmHg 80%
    03:00 +20°C° 0 mm 2 m/s 752 mmHg 80%
    04:00 +20°C° 0 mm 2 m/s 752 mmHg 80%
    05:00 +24°C° 0 mm 2 m/s 752 mmHg 67%
    06:00 +27°C° 0 mm 2 m/s 752 mmHg 55%
    07:00 +31°C° 0 mm 2 m/s 752 mmHg 42%
    08:00 +32°C° 0 mm 2 m/s 752 mmHg 38%
    09:00 +35°C° 0 mm 2 m/s 752 mmHg 34%
    10:00 +37°C° 0 mm 2 m/s 752 mmHg 29%
    11:00 +37°C° 0 mm 3 m/s 752 mmHg 29%
    12:00 +38°C° 0 mm 4 m/s 751 mmHg 29%
    13:00 +38°C° 0 mm 4 m/s 751 mmHg 29%
    14:00 +37°C° 0 mm 4 m/s 751 mmHg 31%
    15:00 +37°C° 0 mm 4 m/s 751 mmHg 32%
    16:00 +36°C° 0 mm 4 m/s 751 mmHg 34%
    17:00 +33°C° 0 mm 3 m/s 751 mmHg 44%
    18:00 +30°C° 0 mm 3 m/s 751 mmHg 55%
    19:00 +27°C° 0 mm 3 m/s 751 mmHg 65%
    20:00 +25°C° 0 mm 2 m/s 751 mmHg 67%
    21:00 +24°C° 0 mm 2 m/s 751 mmHg 70%
    22:00 +23°C° 0 mm 2 m/s 752 mmHg 72%
    23:00 +23°C° 0 mm 2 m/s 751 mmHg 73%

    29 Iunie, Joi

    Timp Temperatura Precipitaţii Vânt Presiune Umiditate
    00:00 +21°C° 0 mm 2 m/s 751 mmHg 75%
    01:00 +21°C° 0 mm 2 m/s 751 mmHg 76%
    02:00 +21°C° 0 mm 2 m/s 751 mmHg 76%
    03:00 +21°C° 0 mm 2 m/s 751 mmHg 76%
    04:00 +21°C° 0 mm 2 m/s 751 mmHg 76%
    05:00 +25°C° 0 mm 2 m/s 751 mmHg 65%
    06:00 +28°C° 0 mm 2 m/s 751 mmHg 54%
    07:00 +31°C° 0 mm 2 m/s 752 mmHg 42%
    08:00 +34°C° 0 mm 2 m/s 752 mmHg 37%
    09:00 +36°C° 0 mm 2 m/s 752 mmHg 32%
    10:00 +38°C° 0 mm 2 m/s 752 mmHg 26%
    11:00 +38°C° 0 mm 3 m/s 751 mmHg 25%
    12:00 +40°C° 0 mm 4 m/s 751 mmHg 24%
    13:00 +41°C° 0 mm 5 m/s 751 mmHg 23%
    14:00 +40°C° 0 mm 5 m/s 751 mmHg 26%
    15:00 +39°C° 0 mm 5 m/s 750 mmHg 28%
    16:00 +37°C° 0 mm 5 m/s 750 mmHg 31%
    17:00 +34°C° 0 mm 4 m/s 750 mmHg 42%
    18:00 +30°C° 0 mm 4 m/s 750 mmHg 52%
    19:00 +27°C° 0 mm 4 m/s 751 mmHg 63%
    20:00 +26°C° 0 mm 3 m/s 751 mmHg 64%
    21:00 +25°C° 0 mm 3 m/s 751 mmHg 65%
    22:00 +25°C° 0 mm 3 m/s 752 mmHg 66%
    23:00 +24°C° 0 mm 3 m/s 752 mmHg 65%
    Arată mai mult